AG1T-1 Weather Reports


time (UTC)temp
F
wind
direction
speed
knots
gust
knots
rain 1hr
in
rain 24hr
in
rain mn
in
humidity
%
barometer
mb
20260906234003 80 0 0.0 0.9 0.00 0.00 0.00 34 1015.9
20260906233003 80 0 0.0 0.9 0.00 0.00 0.00 34 1016.0
20260906232003 80 215 0.9 3.5 0.00 0.00 0.00 33 1016.1
20260906231003 80 215 0.9 5.2 0.00 0.00 0.00 33 1016.3
20260906230004 80 219 1.7 6.1 0.00 0.00 0.00 32 1016.4
20260906225003 80 222 1.7 9.6 0.00 0.00 0.00 31 1016.5
20260906224003 81 238 1.7 6.1 0.00 0.00 0.00 32 1016.6
20260906223003 81 231 1.7 5.2 0.00 0.00 0.00 31 1016.4
20260906222003 82 200 3.5 7.0 0.00 0.00 0.00 29 1016.6
20260906221003 82 203 2.6 7.8 0.00 0.00 0.00 30 1016.7
20260906220003 82 233 3.5 8.7 0.00 0.00 0.00 30 1016.6
20260906215003 82 211 4.3 9.6 0.00 0.00 0.00 30 1016.7
20260906214003 83 222 4.3 10.4 0.00 0.00 0.00 30 1016.6
20260906213003 82 216 2.6 7.8 0.00 0.00 0.00 31 1016.6
20260906212003 82 229 2.6 8.7 0.00 0.00 0.00 30 1016.8
20260906211003 83 190 3.5 8.7 0.00 0.00 0.00 29 1016.9
20260906210003 83 146 3.5 9.6 0.00 0.00 0.00 29 1016.8
20260906205003 83 192 2.6 7.8 0.00 0.00 0.00 28 1017.1
20260906204003 82 186 1.7 6.1 0.00 0.00 0.00 28 1017.1
20260906203003 82 203 2.6 7.8 0.00 0.00 0.00 28 1017.2
20260906202003 82 224 2.6 7.8 0.00 0.00 0.00 29 1017.5
20260906201003 81 223 2.6 7.0 0.00 0.00 0.00 29 1017.8
20260906200003 80 208 3.5 11.3 0.00 0.00 0.00 30 1018.0
20260906195003 80 229 2.6 11.3 0.00 0.00 0.00 30 1018.1
20260906194003 80 230 3.5 8.7 0.00 0.00 0.00 29 1018.3
20260906193003 80 227 3.5 10.4 0.00 0.00 0.00 28 1018.1
20260906192003 81 219 3.5 10.4 0.00 0.00 0.00 28 1018.1
20260906191003 82 216 3.5 9.6 0.00 0.00 0.00 27 1018.3
20260906190003 82 216 4.3 10.4 0.00 0.00 0.00 27 1018.4
20260906185003 82 223 3.5 8.7 0.00 0.00 0.00 27 1018.5
20260906184003 81 223 3.5 11.3 0.00 0.00 0.00 27 1018.6
20260906183003 81 213 4.3 11.3 0.00 0.00 0.00 28 1018.7
20260906182003 81 208 3.5 7.8 0.00 0.00 0.00 28 1018.9
20260906181003 81 228 3.5 9.6 0.00 0.00 0.00 27 1019.0
20260906180003 80 236 3.5 10.4 0.00 0.00 0.00 27 1019.2
20260906175003 80 232 4.3 9.6 0.00 0.00 0.00 28 1019.4
20260906174003 79 239 6.1 14.8 0.00 0.00 0.00 26 1019.7
20260906173003 79 222 5.2 13.9 0.00 0.00 0.00 26 1019.8
20260906172003 79 208 4.3 13.0 0.00 0.00 0.00 27 1019.7
20260906171003 79 224 4.3 18.2 0.00 0.00 0.00 27 1019.8
20260906170003 79 218 5.2 13.0 0.00 0.00 0.00 27 1019.9
20260906165003 78 220 4.3 13.9 0.00 0.00 0.00 28 1020.0
20260906164003 78 226 4.3 10.4 0.00 0.00 0.00 29 1019.9
20260906163003 78 226 3.5 8.7 0.00 0.00 0.00 30 1020.0
20260906162003 78 224 2.6 9.6 0.00 0.00 0.00 32 1020.0
20260906161003 79 231 0.9 8.7 0.00 0.00 0.00 31 1020.2
20260906160003 77 0 0.0 1.7 0.00 0.00 0.00 34 1020.2
20260906155003 74 0 0.0 0.0 0.00 0.00 0.00 38 1020.3
20260906154003 72 0 0.0 0.0 0.00 0.00 0.00 40 1020.4
20260906153003 70 0 0.0 0.0 0.00 0.00 0.00 44 1020.5
20260906152003 68 0 0.0 2.6 0.00 0.00 0.00 46 1020.3
20260906151003 66 0 0.0 2.6 0.00 0.00 0.00 49 1020.2
20260906150003 64 330 0.9 3.5 0.00 0.00 0.00 50 1020.2
20260906145003 63 328 1.7 5.2 0.00 0.00 0.00 50 1020.3
20260906144003 61 327 0.9 3.5 0.00 0.00 0.00 52 1020.1
20260906143003 59 333 2.6 5.2 0.00 0.00 0.00 53 1020.1
20260906142003 58 39 0.9 3.5 0.00 0.00 0.00 55 1020.1
20260906141003 57 0 0.0 0.0 0.00 0.00 0.00 55 1020.0
20260906140003 57 0 0.0 0.0 0.00 0.00 0.00 55 1019.9
20260906135003 57 0 0.0 0.0 0.00 0.00 0.00 55 1019.8
20260906134003 58 0 0.0 0.9 0.00 0.00 0.00 50 1019.7
20260906133003 61 0 0.0 2.6 0.00 0.00 0.00 44 1019.6
20260906132003 64 139 0.9 5.2 0.00 0.00 0.00 35 1019.5
20260906131003 63 151 2.6 7.0 0.00 0.00 0.00 36 1019.3
20260906130003 63 162 2.6 8.7 0.00 0.00 0.00 35 1019.4
20260906125003 64 156 2.6 7.0 0.00 0.00 0.00 34 1019.4
20260906124003 62 161 1.7 4.3 0.00 0.00 0.00 36 1019.4
20260906123003 63 147 1.7 5.2 0.00 0.00 0.00 36 1019.3
20260906122003 64 149 2.6 7.8 0.00 0.00 0.00 34 1019.2
20260906121003 64 165 2.6 7.0 0.00 0.00 0.00 33 1019.2
20260906120003 65 148 2.6 8.7 0.00 0.00 0.00 32 1019.3
20260906115003 66 149 2.6 6.1 0.00 0.00 0.00 31 1019.2
20260906114003 66 155 2.6 7.0 0.00 0.00 0.00 31 1019.2
20260906113003 67 155 1.7 4.3 0.00 0.00 0.00 29 1019.2
20260906112003 68 140 2.6 6.1 0.00 0.00 0.00 28 1019.2
20260906111003 68 141 2.6 7.0 0.00 0.00 0.00 29 1019.2
20260906110003 68 154 0.9 5.2 0.00 0.00 0.00 29 1019.2
20260906105003 69 131 1.7 6.1 0.00 0.00 0.00 28 1019.1
20260906104003 69 135 1.7 6.1 0.00 0.00 0.00 28 1019.0
20260906103003 69 140 2.6 7.8 0.00 0.00 0.00 28 1019.0
20260906102003 69 127 2.6 8.7 0.00 0.00 0.00 27 1019.0
20260906101003 69 125 2.6 7.8 0.00 0.00 0.00 27 1019.0
20260906100003 68 123 2.6 7.0 0.00 0.00 0.00 28 1019.0
20260906095003 65 124 1.7 7.0 0.00 0.00 0.00 32 1018.8
20260906094003 62 0 0.0 2.6 0.00 0.00 0.00 40 1018.8
20260906093003 63 0 0.0 0.0 0.00 0.00 0.00 40 1018.7
20260906092003 66 131 0.9 7.8 0.00 0.00 0.00 36 1018.7
20260906091003 67 144 0.9 6.1 0.00 0.00 0.00 30 1018.5
20260906090003 68 138 1.7 5.2 0.00 0.00 0.00 29 1018.5
20260906085003 68 136 1.7 7.0 0.00 0.00 0.00 28 1018.3
20260906084003 67 138 0.9 5.2 0.00 0.00 0.00 29 1018.4
20260906083003 68 144 1.7 6.1 0.00 0.00 0.00 30 1018.3
20260906082003 69 152 2.6 5.2 0.00 0.00 0.00 29 1018.4
20260906081003 70 139 2.6 8.7 0.00 0.00 0.00 27 1018.4
20260906080003 70 137 2.6 6.1 0.00 0.00 0.00 27 1018.5
20260906075003 70 134 2.6 7.0 0.00 0.00 0.00 26 1018.5
20260906074003 70 139 2.6 7.8 0.00 0.00 0.00 26 1018.5
20260906073003 70 134 2.6 7.0 0.00 0.00 0.00 27 1018.5
20260906072003 70 138 3.5 8.7 0.00 0.00 0.00 28 1018.5
20260906071003 69 141 2.6 7.8 0.00 0.00 0.00 28 1018.4
20260906070003 69 143 2.6 9.6 0.00 0.00 0.00 29 1018.4
20260906065003 65 130 2.6 6.1 0.00 0.00 0.00 34 1018.3
20260906064003 59 0 0.0 0.0 0.00 0.00 0.00 49 1018.4
20260906063003 59 0 0.0 0.0 0.00 0.00 0.00 53 1018.3
20260906062003 59 0 0.0 0.0 0.00 0.00 0.00 51 1018.3
20260906061003 60 0 0.0 0.0 0.00 0.00 0.00 52 1018.4
20260906060003 60 0 0.0 0.0 0.00 0.00 0.00 51 1018.4
20260906055003 61 0 0.0 0.0 0.00 0.00 0.00 48 1018.3
20260906054003 61 0 0.0 0.0 0.00 0.00 0.00 46 1018.3
20260906053003 62 0 0.0 0.0 0.00 0.00 0.00 44 1018.2
20260906052003 63 0 0.0 0.9 0.00 0.00 0.00 44 1018.2
20260906051003 64 0 0.0 0.0 0.00 0.00 0.00 43 1018.3
20260906050003 64 0 0.0 0.0 0.00 0.00 0.00 41 1018.3
20260906045003 65 0 0.0 0.0 0.00 0.00 0.00 38 1018.2
20260906044003 66 0 0.0 1.7 0.00 0.00 0.00 37 1018.3
20260906043003 67 189 0.9 4.3 0.00 0.00 0.00 36 1018.3
20260906042003 68 185 0.9 6.1 0.00 0.00 0.00 34 1018.2
20260906041003 68 187 0.9 3.5 0.00 0.00 0.00 33 1018.3
20260906040003 68 184 1.7 4.3 0.00 0.00 0.00 33 1018.3
20260906035003 67 164 1.7 5.2 0.00 0.00 0.00 35 1018.2
20260906034003 66 170 1.7 4.3 0.00 0.00 0.00 39 1018.1
20260906033003 67 0 0.0 2.6 0.00 0.00 0.00 40 1018.0
20260906032003 68 0 0.0 2.6 0.00 0.00 0.00 43 1018.0
20260906031003 68 0 0.0 1.7 0.00 0.00 0.00 41 1018.0
20260906030003 69 0 0.0 1.7 0.00 0.00 0.00 39 1017.8
20260906025003 70 0 0.0 2.6 0.00 0.00 0.00 39 1017.8
20260906024003 72 0 0.0 0.0 0.00 0.00 0.00 33 1017.6
20260906023003 73 0 0.0 0.0 0.00 0.00 0.00 32 1017.4
20260906022003 74 0 0.0 0.0 0.00 0.00 0.00 31 1017.4
20260906021003 76 0 0.0 0.0 0.00 0.00 0.00 30 1017.4
20260906020003 78 0 0.0 0.0 0.00 0.00 0.00 31 1017.5
20260906015003 79 0 0.0 0.0 0.00 0.00 0.00 29 1017.6
20260906014003 81 0 0.0 0.0 0.00 0.00 0.00 28 1017.7
20260906013003 83 0 0.0 0.0 0.00 0.00 0.00 27 1017.7
20260906012003 84 0 0.0 0.0 0.00 0.00 0.00 23 1017.8
20260906011003 86 0 0.0 0.0 0.00 0.00 0.00 23 1017.9
20260906010003 85 0 0.0 0.9 0.00 0.00 0.00 19 1018.0
20260906005003 85 0 0.0 3.5 0.00 0.00 0.00 20 1018.0
20260906004003 85 253 0.9 3.5 0.00 0.00 0.00 20 1018.0
20260906003003 85 240 0.9 3.5 0.00 0.00 0.00 20 1017.9
20260906002003 85 225 0.9 5.2 0.00 0.00 0.00 19 1017.9
20260906001003 86 227 0.9 7.0 0.00 0.00 0.00 19 1017.8
20260906000003 86 0 0.0 1.7 0.00 0.00 0.00 19 1017.9
20260905235003 86 246 0.9 4.3 0.00 0.00 0.00 18 1017.9